Back to catalog

LEGION 6

AliveScienceVLEO
NORAD 62901·PAYLOAD·🇺🇸 United States

Launched Feb 4, 2025 from Cape Canaveral Space Force Station

Loading…

Next Passes (next 24 hours)

TLE

FreshSource: Space-Track

Epoch: Sep 13, 2026, 13:38 UTC

1 62901U 25025B   26256.56825211  .00002988  00000-0  16612-3 0  9999
2 62901  45.0004  96.6510 0011185 260.2678  99.6937 15.16038145 89045

Track LEGION 6 in real time with AllMySat

Download on the App Store